Lid_Strength_Index
-1 1 -0 3 10 10 12 10 8 9 8 5 5 6 7 6 9 12 1 1 -0 0 -0 -1 -2 -2 -1 -1 -2 -2 -2 -2 -1 -1 -1 -1 -1 -1 -2 -2 -2 -1 -1 -1 -1 -1 -1 -1 -1
-0 1 2 6 11 14 13 8 9 7 6 4 5 5 6 7 4 4 3 2 1 -0 -0 -1 -2 -2 -2 -2 -2 -2 -2 -2 -2 -2 -2 -1 -2 -1 -1 -2 -2 -1 -1 -1 -1 -1 -1 -1 -1
0 2 5 9 10 13 12 8 7 6 4 5 5 6 6 6 4 5 1 0 0 0 -0 -1 -1 -2 -2 -2 -2 -2 -2 -2 -2 -2 -2 -2 -2 -2 -2 -2 -1 -1 -1 -1 -2 -2 -1 -1 -1
2 3 5 10 11 8 9 7 6 6 5 4 6 8 5 4 3 2 0 0 0 0 -0 -1 -2 -2 -2 -2 -2 -2 -1 -1 -1 -1 -1 -2 -2 -1 -2 -1 -1 -1 -1 -1 -2 -2 -2 -2 -2
2 5 10 9 10 7 6 6 5 6 5 5 4 6 6 3 2 2 1 0 1 1 -0 -1 -1 -1 -2 -1 -1 -2 -2 -2 -2 -2 -2 -2 -2 -2 -2 -1 -2 -1 -1 -1 -1 -1 -1 -1 -2
6 5 10 11 9 7 6 5 5 5 5 5 6 6 6 3 3 2 1 1 0 1 -0 -0 -1 -2 -2 -2 -2 -2 -2 -2 -3 -3 -3 -2 -2 -3 -2 -2 -2 -2 -2 -1 -1 -1 -1 -1 -1
6 8 10 9 10 8 6 5 7 6 6 6 5 6 5 4 3 2 2 1 1 1 1 0 -0 -1 -2 -2 -2 -3 -3 -4 -3 -4 -4 -4 -2 -4 -4 -3 -3 -2 -2 -2 -2 -2 -1 -1 -1
5 7 9 8 10 9 5 5 6 5 7 4 5 7 7 4 3 3 2 2 2 1 1 1 1 0 0 -0 -4 -5 -4 -5 -5 -5 -5 -5 -5 -4 -4 -3 -3 -3 -2 -3 -2 -2 -1 -1 -1
1 10 11 9 7 8 6 7 5 5 6 5 4 5 4 3 3 4 4 3 3 2 2 2 1 2 2 2 -1 -2 -3 -4 -3 -2 -3 -0 1 0 -0 -4 -3 -3 -3 -4 -3 -2 -1 -1 -1
6 9 8 7 6 7 6 6 6 6 6 6 5 5 4 4 4 4 5 5 5 5 4 4 4 4 4 3 4 4 4 4 4 3 4 3 3 1 -1 -2 -4 -4 -4 -4 -4 -3 -2 -1 -0
5 8 6 6 5 4 6 6 5 7 7 5 6 6 5 5 5 6 5 5 5 6 5 5 6 5 5 5 5 5 5 5 4 4 4 4 3 4 4 3 3 1 -2 0 -1 -0 -0 0 0
7 5 5 4 5 4 6 5 7 7 5 4 5 5 5 6 6 6 6 5 5 6 6 6 6 6 6 5 5 5 6 5 5 5 5 5 5 5 6 5 5 4 3 3 3 2 1 1 0
7 5 5 5 5 6 5 7 7 6 4 4 5 5 6 6 6 6 6 5 6 6 7 7 7 7 7 6 6 6 6 6 6 6 5 5 6 6 6 6 5 5 5 5 5 4 4 3 2
5 6 6 6 6 6 7 7 7 6 4 5 6 6 6 6 6 6 6 6 7 7 8 7 8 8 8 7 7 7 6 6 6 6 6 6 6 6 6 6 6 6 5 5 5 5 4 4 3
5 8 7 7 7 7 6 8 8 6 5 7 7 7 6 6 6 7 6 7 7 8 8 8 8 8 8 8 7 7 7 7 7 7 7 7 6 6 7 6 6 6 6 5 5 5 4 4 3
8 8 10 8 7 7 7 11 7 6 7 7 7 7 7 6 6 7 6 7 8 8 9 8 7 9 9 9 8 8 8 8 8 8 7 7 6 6 7 6 6 6 6 6 6 6 5 5 4
9 11 10 9 7 7 8 10 7 6 7 7 7 7 7 7 7 7 7 8 8 8 9 9 8 9 9 9 9 8 8 8 8 8 8 8 6 6 7 6 6 6 6 6 6 6 6 6 6
11 11 10 10 8 8 9 9 7 6 7 7 7 7 7 7 7 7 8 8 8 8 9 9 9 9 9 9 9 9 9 9 9 9 8 8 7 7 7 6 7 6 7 7 7 7 6 6 5
8 9 10 8 7 9 9 9 8 7 7 8 7 7 7 7 6 7 8 9 9 9 9 10 9 10 10 10 10 10 10 10 9 9 8 8 8 7 8 7 7 7 7 7 7 7 7 7 6
8 10 10 8 7 9 9 10 8 7 7 7 7 7 7 6 6 7 8 9 9 9 10 10 10 9 10 9 10 10 11 10 9 8 8 8 8 8 8 8 8 8 8 8 7 7 8 7 6
9 10 10 10 8 8 10 11 10 8 7 6 6 6 6 6 7 7 9 9 10 10 10 10 10 10 9 10 10 10 10 9 9 10 9 8 8 8 8 8 9 9 8 8 8 8 8 8 7
11 8 8 9 11 13 10 15 11 9 8 8 7 6 6 6 6 7 8 9 10 10 9 9 9 10 9 9 10 11 11 11 11 10 10 9 9 9 8 8 8 8 8 9 8 7 8 7 8
9 7 8 9 11 12 11 14 12 9 10 8 7 7 6 6 6 7 7 8 9 10 10 10 10 10 10 10 10 10 11 11 10 10 10 10 10 9 8 8 8 8 8 8 8 7 7 6 6
7 8 8 9 11 16 12 12 13 10 9 8 8 7 7 6 7 6 7 8 9 9 9 9 10 10 10 10 10 10 11 11 11 11 11 10 10 9 8 8 8 8 8 8 7 6 6 5 4
8 10 15 17 18 17 10 12 11 9 9 9 8 8 7 7 7 7 8 8 9 10 9 9 9 10 10 10 11 11 11 11 11 11 11 11 11 10 9 8 8 8 8 7 6 6 5 4 4
10 10 14 18 17 15 12 15 12 8 8 8 7 7 7 7 7 8 8 8 9 9 9 10 10 10 10 11 11 11 11 10 11 11 11 11 10 10 8 8 8 8 7 6 6 5 4 3 2
10 12 9 12 11 14 12 11 9 8 9 9 9 8 8 8 8 8 8 8 8 9 10 9 10 10 10 11 11 12 12 11 11 11 10 10 10 8 8 8 8 7 6 5 5 5 4 2 3
9 8 13 13 17 18 14 13 12 11 10 10 10 9 8 8 8 8 8 8 8 9 9 9 9 10 10 11 11 11 12 11 11 11 11 10 9 8 8 8 8 7 5 5 5 4 3 4 4
11 11 10 11 12 16 16 14 10 10 10 10 10 9 9 8 8 9 9 9 9 9 9 10 10 10 11 11 11 12 12 11 11 11 11 10 9 9 8 8 7 6 6 5 5 4 4 4 4
9 11 10 13 14 12 13 13 8 9 9 9 9 9 9 8 8 9 9 9 9 10 10 11 11 11 11 11 12 12 11 11 12 11 11 10 9 9 8 8 6 6 6 5 5 4 4 5 5